Regional Weather Roundup
Issued by NWS

Home | Current Version | Previous Version | Text Only | Print | Product List | Glossary Off
Versions: 1 2 3 4 5 6 7 8 9 10 11 12 13 14 15 16 17 18 19 20 21 22 23 24 25 26 27 28 29 30 31 32 33 34 35 36 37 38 39 40 41 42 43 44 45 46 47 48 49 50

000
ASUS43 KMPX 101001
RWRMN
WEATHER ROUNDUP FOR MINNESOTA
NATIONAL WEATHER SERVICE TWIN CITIES/CHANHASSEN MN
500 AM CDT THU JUL 10 2014


NOTE: "FAIR" INDICATES FEW OR NO CLOUDS BELOW 12,000 FEET WITH NO
SIGNIFICANT WEATHER AND/OR OBSTRUCTIONS TO VISIBILITY. N/A MEANS
CURRENT SKY AND/OR WEATHER CONDITIONS ARE NOT AVAILABLE.

MNZ060>063-068>070-101100-
   Twin Cities Metro

CITY           SKY/WX    TMP DP  RH WIND       PRES   REMARKS
TWIN CITIES    PTCLDY    62  56  80 E7        30.03S
ST PAUL        CLEAR     60  57  89 SE3       30.04R
CRYSTAL        CLEAR     59  55  87 CALM      30.01S
BLAINE         CLEAR     63  59  88 CALM      30.03S
LAKEVILLE      CLEAR     54  54 100 CALM      30.03S
EDEN PRAIRIE   CLEAR     62  56  80 SE3       30.02R
SOUTH ST PAUL  CLEAR     61  58  88 CALM      30.03S
LAKE ELMO      FAIR      59  55  88 CALM      30.05R
$$
MNZ001>005-007-008-013>017-022>024-027-028-101100-
   Northwest Minnesota

CITY           SKY/WX    TMP DP  RH WIND       PRES   REMARKS
BEMIDJI        FOG       43  42  98 CALM      30.00S VSB<1/4
HALLOCK        CLEAR     55  52  88 SE7       29.94F
ROSEAU         CLEAR     50  45  81 S3        29.97S
WARROAD        CLEAR     54  48  82 CALM      29.98R FOG
THIEF RVR FALL CLEAR     54  50  87 CALM      29.98S
CROOKSTON      CLEAR     54  52  94 SE7       29.97S
FOSSTON        CLEAR     48  46  93 CALM      30.00S
DETROIT LAKES  CLEAR     55  54  94 CALM      30.01F
PARK RAPIDS    CLEAR     50  48  93 CALM      30.01S
$$
MNZ006-009>011-018-025>026-101100-
   North Central Minnesota

CITY           SKY/WX    TMP DP  RH WIND       PRES   REMARKS
BAUDETTE       CLEAR     50  48  93 CALM      30.00R
FLAG ISLAND    CLEAR     61  55  82 CALM      29.95S
INTL FALLS     CLEAR     47  45  93 SE3       30.00S
LONGVILLE      CLEAR     48  48 100 CALM      30.01S
GRAND RAPIDS   PTCLDY    52  48  87 SE5       30.03S
CRANE LAKE     CLEAR     43  43 100 CALM      30.04R
ORR            PTCLDY    52  46  82 CALM      30.01R
COOK           MOCLDY    48  48 100 CALM      30.04R
$$
MNZ012-019>021-037-101100-
   Northeast Minnesota

CITY           SKY/WX    TMP DP  RH WIND       PRES   REMARKS
DULUTH         PTCLDY    55  48  77 CALM      30.05R
ELY            MOCLDY    46  45  93 CALM      30.05R
HIBBING        MOCLDY    46  43  89 CALM      30.04S FOG
EVELETH        MOCLDY    45  43  93 CALM      30.05S
DULUTH HARBOR  PTCLDY    57  54  88 N3        30.05S
TWO HARBORS    PTCLDY    46  43  87 CALM      30.04S
SILVER BAY     CLEAR     43  43 100 CALM      30.05R
GRAND MARAIS     N/A     42  40  92 CALM      30.05R
G MARAIS ARPRT MOCLDY    43  39  87 CALM      30.08R
$$
MNZ029>031-032-039>041-046>048-054>057-064-101100-
   West Central Minnesota

CITY           SKY/WX    TMP DP  RH WIND       PRES   REMARKS
FERGUS FALLS   CLEAR     61  50  67 SE5       30.00S
WHEATON        CLEAR     52  50  93 E6        30.00F
MORRIS         CLEAR     54  52  94 SE5       29.99F
ALEXANDRIA     CLEAR     57  50  77 SE5       30.03S
WADENA         MOCLDY    48  48 100 CALM      30.01S FOG
GLENWOOD       CLEAR     55  52  88 E3        30.02F
APPLETON       CLEAR     55  52  88 CALM      29.99S
BENSON         PTCLDY    54  54 100 SE3       30.00S
ORTONVILLE     CLEAR     57  54  88 E5        29.99S
MADISON        CLEAR     57  55  94 SE3       29.99F
WILLMAR        FAIR      59  54  82 E3        30.02S
$$
MNZ033>034-036-042>043-049>051-058-059-101100-
   Central Minnesota

CITY           SKY/WX    TMP DP  RH WIND       PRES   REMARKS
ST CLOUD       CLEAR     54  52  93 CALM      30.02R
SAUK CENTRE    FAIR      52  51  97 CALM      30.02F
PAYNESVILLE    CLEAR     47  47 100 CALM      30.03S
AITKIN         CLEAR     50  45  81 CALM      30.01S
PINE RIVER     CLEAR     48  48 100 CALM      30.05R
BRAINERD       CLEAR     57  51  80 CALM      30.02S
STAPLES        CLEAR     52  50  93 CALM      30.02R
LONG PRAIRIE   FAIR      50  48  93 CALM      30.02F
LITTLE FALLS   CLEAR     50  48  93 CALM      30.02S FOG
LITCHFIELD     CLEAR     57  55  94 CALM      30.02F
BUFFALO        CLEAR     59  55  87 CALM      30.03S
MAPLE LAKE     CLEAR     55  55  98 CALM      30.03S FOG
$$
MNZ037-044-045-052-053-101100-
   East Central Minnesota

CITY           SKY/WX    TMP DP  RH WIND       PRES   REMARKS
PRINCETON      CLEAR     57  55  94 SE3       30.02S
MORA           PTCLDY    52  50  93 CALM      30.05S
CAMBRIDGE      PTCLDY    61  52  72 SE3       30.01F
RUSH CITY      MOCLDY    56  54  93 CALM      30.04S
MOOSE LAKE     PTCLDY    48  46  93 CALM      30.03S
HINCKLEY       CLOUDY    52  52 100 CALM      30.04F
CLOQUET        MOCLDY    54  50  87 CALM      30.05R
MCGREGOR       PTCLDY    52  52 100 S5        30.04S
$$
MNZ071>073-080-081-089-090-097-098-101100-
   Southwest Minnesota

CITY           SKY/WX    TMP DP  RH WIND       PRES   REMARKS
MONTEVIDEO     CLEAR     57  54  88 S3        30.01S
GRANITE FALLS  CLEAR     58  52  79 E3        30.01S
CANBY          CLEAR     54  52  91 CALM      30.00S
MARSHALL       CLEAR     57  52  82 MISG      29.99S
REDWOOD FALLS  PTCLDY    60  56  86 E3        30.00S
OLIVIA         PTCLDY    57  50  77 CALM      30.00F
PIPESTONE      CLEAR     61  55  82 CALM      30.01S
WINDOM         CLEAR     59  54  82 CALM      30.02R
WORTHINGTON    CLEAR     61  59  94 S5        30.03R
JACKSON        CLEAR     59  54  82 S3        30.02S
TRACY          CLEAR     63  54  71 S3        30.01S
SLAYTON        CLEAR     57  55  91 CALM      30.02S
$$
MNZ065>067-074>077-082>085-091>093-101100-
   South Central Minnesota

CITY           SKY/WX    TMP DP  RH WIND       PRES   REMARKS
MANKATO        PTCLDY    61  54  77 SE7       30.02S
NEW ULM        CLEAR     57  57 100 E3        30.01S
ST JAMES       CLEAR     57  55  94 CALM      30.02S
FAIRMONT       CLEAR     57  52  82 S3        30.02S
GLENCOE        PTCLDY    59  53  81 CALM      30.02S
FARIBAULT      PTCLDY    57  52  82 CALM      30.04S
OWATONNA       CLEAR     59  55  88 CALM      30.04R
WASECA         PTCLDY    55  50  82 CALM      30.05R
ALBERT LEA     PTCLDY    61  57  88 CALM      30.04R
$$
MNZ078>079-086>088-094>096-101100-
   Southeast Minnesota

CITY           SKY/WX    TMP DP  RH WIND       PRES   REMARKS
ROCHESTER      CLEAR     57  54  89 SE8       30.06S
RED WING       PTCLDY    59  55  88 CALM      30.04R
STANTON        CLEAR     57  54  88 CALM      30.02S
DODGE CENTER   PTCLDY    57  55  94 SE6       30.05R
WINONA         PTCLDY    59  57  94 CALM      30.07R
AUSTIN         PTCLDY    57  55  94 CALM      30.05R
PRESTON        CLEAR     60  56  85 S6        30.07R
$$
ABBREVIATIONS USED IN REMARKS
   TC - TEMPERATURES IN CELSIUS
  WCI - WIND CHILL INDEX
   HX - HEAT INDEX
  VSB - VISIBILITY
$$


USA.gov is the U.S. government's official web portal to all federal, state and local government web resources and services.